DAL121 KPWM-KEWR

Flight info

Callsign DAL121
Flight time 1h 1m
Altitude 40000
Route CON CAM ALB V489 COATE
Aircraft A333/H-SDE3GHIJ2J3J5M1RVWXY/LB2D1

Departure

Time 2026-05-04 20:54
Airport Portland International Jetport (KPWM)

Arrival

Time 2026-05-04 21:55
Airport Newark Liberty International Airport (KEWR)
Time Latitude Longitude Altitude Speed Heading
2026-05-04 20:25 43.64666 -70.30949 70 ft 0 kts
2026-05-04 20:44 43.64653 -70.30951 60 ft 2 kts
2026-05-04 20:45 43.64637 -70.30954 63 ft 2 kts 12°
2026-05-04 20:45 43.64621 -70.30960 60 ft 2 kts 19°
2026-05-04 20:45 43.64606 -70.30969 60 ft 2 kts 34°
2026-05-04 20:45 43.64594 -70.30984 60 ft 2 kts 63°
2026-05-04 20:46 43.64590 -70.31006 62 ft 2 kts 89°
2026-05-04 20:46 43.64590 -70.31017 63 ft 0 kts 94°
2026-05-04 20:46 43.64590 -70.31018 63 ft 0 kts 94°
2026-05-04 20:49 43.64590 -70.31015 63 ft 2 kts 94°
2026-05-04 20:49 43.64586 -70.30961 60 ft 10 kts 94°
2026-05-04 20:50 43.64578 -70.30840 63 ft 16 kts 96°
2026-05-04 20:50 43.64569 -70.30699 63 ft 9 kts 95°
2026-05-04 20:50 43.64561 -70.30588 60 ft 16 kts 96°
2026-05-04 20:50 43.64562 -70.30401 57 ft 20 kts 73°
2026-05-04 20:51 43.64587 -70.30253 56 ft 17 kts 91°
2026-05-04 20:51 43.64578 -70.30115 54 ft 5 kts 95°
2026-05-04 20:51 43.64573 -70.30036 52 ft 11 kts 95°
2026-05-04 20:51 43.64571 -70.29997 54 ft 0 kts 95°
2026-05-04 20:52 43.64571 -70.29991 54 ft 2 kts 95°
2026-05-04 20:52 43.64565 -70.29949 57 ft 4 kts 113°
2026-05-04 20:52 43.64527 -70.29917 52 ft 8 kts 167°
2026-05-04 20:53 43.64458 -70.29914 51 ft 12 kts 178°
2026-05-04 20:53 43.64419 -70.29935 50 ft 3 kts 234°
2026-05-04 20:53 43.64410 -70.29975 58 ft 5 kts 265°
2026-05-04 20:53 43.64411 -70.29995 56 ft 1 kts 274°
2026-05-04 20:54 43.64412 -70.30017 56 ft 5 kts 274°
2026-05-04 20:54 43.64430 -70.30304 56 ft 65 kts 275°
2026-05-04 20:54 43.64493 -70.31241 74 ft 130 kts 275°
2026-05-04 20:54 43.64594 -70.32585 683 ft 144 kts 276°
2026-05-04 20:55 43.64695 -70.33962 1635 ft 149 kts 274°
2026-05-04 20:55 43.64800 -70.35522 2056 ft 180 kts 274°
2026-05-04 20:55 43.64929 -70.37367 2502 ft 205 kts 274°
2026-05-04 20:55 43.65079 -70.39459 2895 ft 233 kts 274°
2026-05-04 20:56 43.65243 -70.41767 3592 ft 245 kts 275°
2026-05-04 20:56 43.65411 -70.44101 4752 ft 242 kts 274°
2026-05-04 20:56 43.65575 -70.46356 5963 ft 237 kts 275°
2026-05-04 20:56 43.65874 -70.48580 7097 ft 237 kts 282°
2026-05-04 20:57 43.66298 -70.50798 8131 ft 241 kts 284°
2026-05-04 20:57 43.66755 -70.53042 9153 ft 245 kts 284°
2026-05-04 20:57 43.67224 -70.55332 10107 ft 250 kts 284°
2026-05-04 20:57 43.67709 -70.57719 10668 ft 269 kts 284°
2026-05-04 20:58 43.68237 -70.60335 11011 ft 294 kts 285°
2026-05-04 20:58 43.68801 -70.63128 11580 ft 309 kts 285°
2026-05-04 20:58 43.69383 -70.66023 12430 ft 314 kts 285°
2026-05-04 20:58 43.69971 -70.68950 13324 ft 319 kts 285°
2026-05-04 20:59 43.70568 -70.71924 14127 ft 323 kts 285°
2026-05-04 20:59 43.71172 -70.74942 14906 ft 327 kts 285°
2026-05-04 20:59 43.71706 -70.77971 15693 ft 331 kts 280°
2026-05-04 20:59 43.71805 -70.81176 16475 ft 337 kts 266°
2026-05-04 21:00 43.71266 -70.84366 17271 ft 345 kts 255°
2026-05-04 21:00 43.70408 -70.87494 18051 ft 350 kts 252°
2026-05-04 21:00 43.69485 -70.90638 18694 ft 355 kts 252°
2026-05-04 21:00 43.68550 -70.93822 19301 ft 360 kts 252°
2026-05-04 21:01 43.67606 -70.97054 19916 ft 365 kts 252°
2026-05-04 21:01 43.66653 -71.00333 20541 ft 369 kts 253°
2026-05-04 21:01 43.65715 -71.03652 21155 ft 372 kts 255°
2026-05-04 21:01 43.64966 -71.07082 21739 ft 374 kts 261°
2026-05-04 21:02 43.64342 -71.10588 22328 ft 378 kts 261°
2026-05-04 21:02 43.63728 -71.14087 22917 ft 382 kts 261°
2026-05-04 21:02 43.63112 -71.17671 23460 ft 386 kts 262°
2026-05-04 21:02 43.62498 -71.21290 23934 ft 389 kts 262°
2026-05-04 21:03 43.61884 -71.24943 24386 ft 393 kts 262°
2026-05-04 21:03 43.61263 -71.28642 24900 ft 395 kts 262°
2026-05-04 21:03 43.60640 -71.32354 25428 ft 397 kts 262°
2026-05-04 21:03 43.60017 -71.36067 25946 ft 399 kts 262°
2026-05-04 21:04 43.59387 -71.39816 26430 ft 402 kts 262°
2026-05-04 21:04 43.58754 -71.43578 26916 ft 404 kts 262°
2026-05-04 21:04 43.58114 -71.47372 27412 ft 407 kts 262°
2026-05-04 21:04 43.57470 -71.51185 27904 ft 408 kts 262°
2026-05-04 21:05 43.56823 -71.55000 28452 ft 409 kts 262°
2026-05-04 21:05 43.56181 -71.58785 28928 ft 412 kts 262°
2026-05-04 21:05 43.55525 -71.62648 29409 ft 414 kts 262°
2026-05-04 21:05 43.54864 -71.66520 29874 ft 417 kts 262°
2026-05-04 21:06 43.54198 -71.70418 30275 ft 419 kts 262°
2026-05-04 21:06 43.53529 -71.74334 30632 ft 422 kts 262°
2026-05-04 21:06 43.52851 -71.78290 31005 ft 425 kts 262°
2026-05-04 21:06 43.52166 -71.82271 31382 ft 427 kts 262°
2026-05-04 21:07 43.51479 -71.86255 31886 ft 426 kts 262°
2026-05-04 21:07 43.50792 -71.90218 32449 ft 424 kts 262°
2026-05-04 21:07 43.50108 -71.94165 32981 ft 422 kts 263°
2026-05-04 21:07 43.49425 -71.98097 33488 ft 421 kts 263°
2026-05-04 21:08 43.48743 -72.02014 33961 ft 420 kts 263°
2026-05-04 21:08 43.48063 -72.05916 34346 ft 420 kts 263°
2026-05-04 21:08 43.47380 -72.09832 34700 ft 420 kts 262°
2026-05-04 21:08 43.46704 -72.13701 35048 ft 421 kts 262°
2026-05-04 21:09 43.46017 -72.17619 35361 ft 422 kts 261°
2026-05-04 21:09 43.45327 -72.21543 35689 ft 422 kts 261°
2026-05-04 21:09 43.44634 -72.25482 35988 ft 423 kts 261°
2026-05-04 21:09 43.43938 -72.29424 36339 ft 423 kts 261°
2026-05-04 21:10 43.43241 -72.33358 36675 ft 423 kts 260°
2026-05-04 21:10 43.42543 -72.37296 37016 ft 424 kts 260°
2026-05-04 21:10 43.41841 -72.41246 37317 ft 425 kts 259°
2026-05-04 21:10 43.41138 -72.45196 37604 ft 425 kts 259°
2026-05-04 21:11 43.40433 -72.49144 37943 ft 425 kts 259°
2026-05-04 21:11 43.39725 -72.53101 38257 ft 426 kts 258°
2026-05-04 21:11 43.39016 -72.57058 38534 ft 426 kts 258°
2026-05-04 21:11 43.38313 -72.60967 38772 ft 427 kts 258°
2026-05-04 21:12 43.37599 -72.64939 38981 ft 428 kts 258°
2026-05-04 21:12 43.36882 -72.68913 39219 ft 428 kts 258°
2026-05-04 21:12 43.36164 -72.72879 39467 ft 428 kts 258°
2026-05-04 21:12 43.35445 -72.76847 39703 ft 428 kts 258°
2026-05-04 21:13 43.33989 -72.84860 39790 ft 435 kts 258°
2026-05-04 21:13 43.32514 -72.92939 39775 ft 436 kts 258°
2026-05-04 21:14 43.31033 -73.01016 39792 ft 436 kts 257°
2026-05-04 21:14 43.29555 -73.09042 39792 ft 437 kts 258°
2026-05-04 21:15 43.28059 -73.17131 39793 ft 437 kts 258°
2026-05-04 21:15 43.26558 -73.25214 39787 ft 437 kts 258°
2026-05-04 21:16 43.25053 -73.33285 39781 ft 437 kts 258°
2026-05-04 21:16 43.23537 -73.41379 39776 ft 438 kts 258°
2026-05-04 21:17 43.21921 -73.49444 39773 ft 440 kts 252°
2026-05-04 21:17 43.19011 -73.56836 39778 ft 446 kts 236°
2026-05-04 21:18 43.16915 -73.59980 39606 ft 448 kts 226°
2026-05-04 21:18 43.14447 -73.62603 39373 ft 451 kts 217°
2026-05-04 21:18 43.11693 -73.64594 39152 ft 458 kts 207°
2026-05-04 21:18 43.08686 -73.66126 38933 ft 463 kts 204°
2026-05-04 21:19 43.05610 -73.67501 38713 ft 466 kts 202°
2026-05-04 21:19 43.02501 -73.68797 38482 ft 469 kts 201°
2026-05-04 21:19 42.99371 -73.70068 38210 ft 470 kts 201°
2026-05-04 21:19 42.96231 -73.71343 37933 ft 471 kts 201°
2026-05-04 21:20 42.93079 -73.72633 37646 ft 472 kts 202°
2026-05-04 21:20 42.89937 -73.73935 37369 ft 473 kts 202°
2026-05-04 21:20 42.86788 -73.75250 37090 ft 474 kts 202°
2026-05-04 21:20 42.83672 -73.76558 36804 ft 475 kts 202°
2026-05-04 21:21 42.80474 -73.77903 36532 ft 476 kts 202°
2026-05-04 21:21 42.77348 -73.79218 36268 ft 477 kts 202°
2026-05-04 21:21 42.74175 -73.80569 36008 ft 478 kts 204°
2026-05-04 21:21 42.71013 -73.81976 35751 ft 478 kts 204°
2026-05-04 21:22 42.67851 -73.83399 35491 ft 479 kts 204°
2026-05-04 21:22 42.64676 -73.84828 35233 ft 481 kts 204°
2026-05-04 21:22 42.61497 -73.86255 34986 ft 482 kts 204°
2026-05-04 21:22 42.58300 -73.87688 34745 ft 483 kts 204°
2026-05-04 21:23 42.55107 -73.89117 34502 ft 484 kts 205°
2026-05-04 21:23 42.51900 -73.90550 34270 ft 485 kts 205°
2026-05-04 21:23 42.49770 -73.91501 34110 ft 486 kts 205°
2026-05-04 21:23 42.45503 -73.93404 33760 ft 487 kts 205°
2026-05-04 21:24 42.42278 -73.94841 33494 ft 488 kts 205°
2026-05-04 21:24 42.40102 -73.95809 33303 ft 488 kts 204°
2026-05-04 21:24 42.36911 -73.97227 33033 ft 487 kts 204°
2026-05-04 21:24 42.33690 -73.98657 32760 ft 487 kts 204°
2026-05-04 21:25 42.29391 -74.00563 32363 ft 486 kts 204°
2026-05-04 21:25 42.27256 -74.01509 32181 ft 486 kts 204°
2026-05-04 21:25 42.24033 -74.02935 31915 ft 485 kts 204°
2026-05-04 21:25 42.20831 -74.04350 31654 ft 485 kts 204°
2026-05-04 21:26 42.17628 -74.05763 31391 ft 484 kts 204°
2026-05-04 21:26 42.14438 -74.07170 31131 ft 483 kts 204°
2026-05-04 21:26 42.11234 -74.08583 30874 ft 480 kts 204°
2026-05-04 21:26 42.08078 -74.09972 30629 ft 477 kts 204°
2026-05-04 21:27 42.04928 -74.11359 30373 ft 475 kts 204°
2026-05-04 21:27 42.01835 -74.12717 30126 ft 472 kts 204°
2026-05-04 21:27 41.98722 -74.14081 29871 ft 469 kts 204°
2026-05-04 21:27 41.95621 -74.15440 29583 ft 467 kts 204°
2026-05-04 21:28 41.92540 -74.16789 29300 ft 464 kts 204°
2026-05-04 21:28 41.89467 -74.18134 28992 ft 462 kts 204°
2026-05-04 21:28 41.86408 -74.19471 28714 ft 460 kts 204°
2026-05-04 21:28 41.83372 -74.20792 28434 ft 459 kts 202°
2026-05-04 21:29 41.80286 -74.21930 28166 ft 458 kts 201°
2026-05-04 21:29 41.77224 -74.23042 27898 ft 455 kts 200°
2026-05-04 21:29 41.74168 -74.24144 27617 ft 453 kts 200°
2026-05-04 21:29 41.71175 -74.25215 26847 ft 447 kts 200°
2026-05-04 21:30 41.68194 -74.26274 25820 ft 439 kts 200°
2026-05-04 21:30 41.65266 -74.27312 24849 ft 432 kts 200°
2026-05-04 21:30 41.62377 -74.28334 23910 ft 425 kts 200°
2026-05-04 21:30 41.59535 -74.29338 22887 ft 418 kts 200°
2026-05-04 21:31 41.54003 -74.31289 20827 ft 404 kts 200°
2026-05-04 21:31 41.51309 -74.32237 19855 ft 396 kts 200°
2026-05-04 21:31 41.48670 -74.33166 18924 ft 389 kts 199°
2026-05-04 21:32 41.46118 -74.34063 17980 ft 382 kts 199°
2026-05-04 21:32 41.43571 -74.34958 16929 ft 375 kts 199°
2026-05-04 21:32 41.41063 -74.35839 15868 ft 370 kts 200°
2026-05-04 21:32 41.38592 -74.36707 14903 ft 364 kts 199°
2026-05-04 21:33 41.36165 -74.37558 13943 ft 358 kts 199°
2026-05-04 21:33 41.33778 -74.38394 12917 ft 352 kts 199°
2026-05-04 21:33 41.31400 -74.39016 12276 ft 341 kts 190°
2026-05-04 21:33 41.29102 -74.38966 12030 ft 323 kts 176°
2026-05-04 21:34 41.26974 -74.38171 11641 ft 314 kts 162°
2026-05-04 21:34 41.25026 -74.36958 11166 ft 306 kts 158°
2026-05-04 21:34 41.23168 -74.35675 10657 ft 298 kts 156°
2026-05-04 21:34 41.21332 -74.34383 9930 ft 299 kts 156°
2026-05-04 21:35 41.19522 -74.33098 9382 ft 293 kts 156°
2026-05-04 21:35 41.17755 -74.31840 9023 ft 282 kts 156°
2026-05-04 21:35 41.16058 -74.30629 8693 ft 272 kts 156°
2026-05-04 21:35 41.14413 -74.29463 8375 ft 268 kts 156°
2026-05-04 21:36 41.12767 -74.28297 8048 ft 268 kts 156°
2026-05-04 21:36 41.11127 -74.27135 7723 ft 266 kts 157°
2026-05-04 21:36 41.09503 -74.25985 7401 ft 264 kts 156°
2026-05-04 21:36 41.07884 -74.24835 7081 ft 263 kts 156°
2026-05-04 21:37 41.06278 -74.23697 6741 ft 260 kts 156°
2026-05-04 21:37 41.04683 -74.22564 6434 ft 258 kts 157°
2026-05-04 21:37 41.03106 -74.21447 6100 ft 257 kts 156°
2026-05-04 21:37 41.01533 -74.20335 5768 ft 255 kts 156°
2026-05-04 21:38 40.99976 -74.19233 5451 ft 253 kts 157°
2026-05-04 21:38 40.98446 -74.18151 5141 ft 251 kts 157°
2026-05-04 21:38 40.96902 -74.17059 4836 ft 251 kts 157°
2026-05-04 21:38 40.95361 -74.15968 4497 ft 251 kts 156°
2026-05-04 21:39 40.93841 -74.14871 4279 ft 246 kts 155°
2026-05-04 21:39 40.92384 -74.13785 4209 ft 234 kts 155°
2026-05-04 21:39 40.90997 -74.12747 4129 ft 225 kts 156°
2026-05-04 21:39 40.89644 -74.11743 4037 ft 222 kts 156°
2026-05-04 21:40 40.88300 -74.10734 3943 ft 222 kts 155°
2026-05-04 21:40 40.86961 -74.09732 3767 ft 222 kts 155°
2026-05-04 21:40 40.85628 -74.08751 3587 ft 218 kts 156°
2026-05-04 21:40 40.84322 -74.07778 3425 ft 216 kts 156°
2026-05-04 21:41 40.83011 -74.06793 3225 ft 214 kts 155°
2026-05-04 21:41 40.81716 -74.05830 3020 ft 212 kts 156°
2026-05-04 21:41 40.80364 -74.05344 2986 ft 193 kts 186°
2026-05-04 21:41 40.79068 -74.05597 2987 ft 186 kts 205°
2026-05-04 21:42 40.78092 -74.06620 2779 ft 182 kts 239°
2026-05-04 21:42 40.77844 -74.08230 2617 ft 184 kts 272°
2026-05-04 21:42 40.77904 -74.09887 2500 ft 184 kts 256°
2026-05-04 21:42 40.77264 -74.11312 2495 ft 185 kts 220°
2026-05-04 21:43 40.76141 -74.12197 2501 ft 191 kts 208°
2026-05-04 21:43 40.74917 -74.12931 2501 ft 195 kts 206°
2026-05-04 21:43 40.73805 -74.13893 2550 ft 191 kts 232°
2026-05-04 21:43 40.73356 -74.15552 2899 ft 205 kts 264°
2026-05-04 21:44 40.73465 -74.17490 2991 ft 216 kts 276°
2026-05-04 21:44 40.73782 -74.19437 2992 ft 219 kts 289°
2026-05-04 21:44 40.74713 -74.20994 2997 ft 226 kts 321°
2026-05-04 21:44 40.76198 -74.21789 3004 ft 235 kts 342°
2026-05-04 21:45 40.77821 -74.22196 2996 ft 238 kts 346°
2026-05-04 21:45 40.79465 -74.22557 3010 ft 240 kts 347°
2026-05-04 21:45 40.81099 -74.22910 2991 ft 237 kts 346°
2026-05-04 21:45 40.82736 -74.23257 3017 ft 240 kts 346°
2026-05-04 21:46 40.84384 -74.23609 2990 ft 238 kts 346°
2026-05-04 21:46 40.86015 -74.23966 2995 ft 238 kts 346°
2026-05-04 21:46 40.87629 -74.24309 2996 ft 238 kts 347°
2026-05-04 21:46 40.89269 -74.24651 2998 ft 239 kts 347°
2026-05-04 21:47 40.90938 -74.24743 3004 ft 246 kts
2026-05-04 21:47 40.92551 -74.23935 3001 ft 250 kts 25°
2026-05-04 21:47 40.94063 -74.22792 3000 ft 252 kts 36°
2026-05-04 21:47 40.95152 -74.21007 3002 ft 252 kts 65°
2026-05-04 21:48 40.95723 -74.18830 2995 ft 251 kts 76°
2026-05-04 21:48 40.96160 -74.16589 2996 ft 251 kts 77°
2026-05-04 21:48 40.96505 -74.14360 2999 ft 243 kts 88°
2026-05-04 21:48 40.96248 -74.12227 3001 ft 231 kts 119°
2026-05-04 21:49 40.95363 -74.10505 2997 ft 223 kts 135°
2026-05-04 21:49 40.94340 -74.08979 3002 ft 221 kts 140°
2026-05-04 21:49 40.93141 -74.07827 3002 ft 211 kts 164°
2026-05-04 21:49 40.91737 -74.07352 3000 ft 207 kts 175°
2026-05-04 21:50 40.90307 -74.07064 2883 ft 209 kts 176°
2026-05-04 21:50 40.88878 -74.06815 2678 ft 208 kts 178°
2026-05-04 21:50 40.87452 -74.06573 2525 ft 205 kts 177°
2026-05-04 21:50 40.86034 -74.06326 2494 ft 205 kts 177°
2026-05-04 21:51 40.84644 -74.06401 2497 ft 198 kts 198°
2026-05-04 21:51 40.83352 -74.06943 2502 ft 191 kts 205°
2026-05-04 21:51 40.82186 -74.07631 2499 ft 178 kts 207°
2026-05-04 21:51 40.81052 -74.08185 2537 ft 170 kts 203°
2026-05-04 21:52 40.79956 -74.08749 2439 ft 169 kts 206°
2026-05-04 21:52 40.78859 -74.09367 2081 ft 175 kts 206°
2026-05-04 21:52 40.77745 -74.09993 1822 ft 176 kts 207°
2026-05-04 21:52 40.76703 -74.10743 1546 ft 165 kts 220°
2026-05-04 21:53 40.75859 -74.11713 1262 ft 157 kts 219°
2026-05-04 21:53 40.74992 -74.12486 1044 ft 142 kts 217°
2026-05-04 21:53 40.74193 -74.13139 917 ft 131 kts 216°
2026-05-04 21:53 40.73464 -74.13747 753 ft 118 kts 214°
2026-05-04 21:54 40.72723 -74.14225 591 ft 119 kts 213°
2026-05-04 21:54 40.71950 -74.14707 477 ft 125 kts 209°
2026-05-04 21:54 40.71197 -74.15224 304 ft 119 kts 210°
2026-05-04 21:54 40.70478 -74.15683 163 ft 112 kts 208°
2026-05-04 21:55 40.69782 -74.16131 54 ft 111 kts 208°
2026-05-04 21:55 40.69137 -74.16545 28 ft 88 kts 206°
2026-05-04 21:55 40.68665 -74.16847 26 ft 57 kts 206°
2026-05-04 21:55 40.68522 -74.17007 27 ft 21 kts 241°
2026-05-04 21:56 40.68463 -74.17135 29 ft 13 kts 236°
2026-05-04 21:56 40.68457 -74.17147 28 ft 0 kts 236°
2026-05-04 21:57 40.68449 -74.17164 27 ft 6 kts 238°
2026-05-04 21:57 40.68442 -74.17235 25 ft 10 kts 286°
2026-05-04 21:57 40.68480 -74.17341 30 ft 16 kts 295°
2026-05-04 21:57 40.68556 -74.17470 28 ft 19 kts 322°
2026-05-04 21:58 40.68626 -74.17529 28 ft 12 kts
2026-05-04 21:58 40.68685 -74.17499 26 ft 0 kts 28°
2026-05-04 21:59 40.68697 -74.17491 27 ft 6 kts 28°
2026-05-04 21:59 40.68750 -74.17456 25 ft 10 kts 26°
2026-05-04 22:00 40.68811 -74.17417 26 ft 11 kts 26°
2026-05-04 22:00 40.68912 -74.17352 26 ft 20 kts 26°
2026-05-04 22:00 40.69029 -74.17279 26 ft 19 kts 25°
2026-05-04 22:00 40.69169 -74.17189 25 ft 22 kts 26°
2026-05-04 22:01 40.69275 -74.17121 25 ft 21 kts 26°
2026-05-04 22:01 40.69377 -74.17072 26 ft 13 kts 11°
2026-05-04 22:01 40.69490 -74.17074 27 ft 21 kts 354°
2026-05-04 22:01 40.69651 -74.17137 26 ft 27 kts 335°
2026-05-04 22:02 40.69804 -74.17286 27 ft 27 kts 314°
2026-05-04 22:02 40.69885 -74.17451 26 ft 24 kts 285°
2026-05-04 22:02 40.69876 -74.17574 25 ft 10 kts 225°
2026-05-04 22:02 40.69820 -74.17632 26 ft 10 kts 193°
2026-05-04 22:03 40.69769 -74.17610 29 ft 6 kts 153°
2026-05-04 22:03 40.69747 -74.17596 26 ft 0 kts 154°